Location: ??????
(30.5519°N, 47.7720°E)
Time: 16:46:06
(UTC+00:00)

NOAA 11 - Pass Details

Date: 24 January 2021
Orbit: 832 x 850 km, 98.4° (Epoch: 02 March)

Event Time Altitude Azimuth Distance (km) Brightness Sun altitude
Rises 14:32:29 0° 165° (SSE) 3,398 7.4 -3.7°
Reaches altitude 10° 14:34:50 10° 165° (SSE) 2,466 6.7 -4.2°
Maximum altitude 14:40:19 86° 78° (ENE) 856 4.3 -5.3°
Drops below altitude 10° 14:45:51 10° 349° (NNW) 2,478 6.6 -6.4°
Sets 14:48:13 0° 349° (NNW) 3,415 7.3 -6.9°
